Location: Wiesbaden
(50.0830°N, 8.2500°E)
Time: 05:11:40
(UTC+01:00)

ISS - Visible Passes

Search period start: 23 January 2018 00:00
Search period end: 02 February 2018 00:00
Orbit: 402 x 407 km, 51.6° (Epoch: 23 January)

Date Brightness Start Highest point End Pass type
(mag) Time Alt. Az. Time Alt. Az. Time Alt. Az.
25 Jan -0.8 19:46:13 10° SSW 19:46:22 11° SSW 19:46:22 11° SSW visible
26 Jan -1.9 18:54:39 10° S 18:56:31 17° SSE 18:56:31 17° SSE visible
27 Jan -1.4 18:04:01 10° SSE 18:04:51 11° SE 18:05:40 10° ESE visible
27 Jan -2.0 19:37:33 10° SW 19:39:14 26° SW 19:39:14 26° SW visible
28 Jan -2.8 18:45:32 10° SSW 18:48:28 31° SSE 18:49:12 28° ESE visible
28 Jan -0.5 20:21:29 10° W 20:21:52 13° W 20:21:52 13° W visible
29 Jan -2.0 17:53:47 10° SSW 17:56:17 20° SE 17:58:47 10° E visible
29 Jan -3.2 19:29:08 10° WSW 19:31:46 54° SW 19:31:46 54° SW visible
30 Jan -3.6 18:36:52 10° SW 18:40:04 55° SSE 18:41:36 27° E visible
30 Jan -0.9 20:13:17 10° W 20:14:16 18° W 20:14:16 18° W visible
31 Jan -3.8 19:20:51 10° W 19:24:03 75° NNW 19:24:03 75° NNW visible
01 Feb -3.9 18:28:27 10° WSW 18:31:43 87° SSE 18:33:49 20° ENE visible
01 Feb -1.4 20:05:04 10° W 20:06:28 23° WNW 20:06:28 23° WNW visible
